Wind_Speed
72 73 74 75 76 77 79 79 80 80 81 81 82 83 84 85 87 89 90 92 93 95 96 98 101 103 105 108 110 112 114 115 116 117 118 119 120 121 121 122 123 124 125 126 127 128 129 130 132 134 136 137 139 140 141 142 142 142 141 139 137 134 131 127 121 114 109 108 107 105 104 102 100 100 98 96 96 95 93 92 91 90 90 89 89
73 74 75 76 78 79 80 80 81 81 82 83 84 85 86 88 89 91 92 94 95 97 99 102 104 106 109 111 113 114 115 116 117 117 118 120 120 121 121 122 123 124 125 125 126 127 129 131 133 135 136 137 138 139 139 139 139 137 136 133 130 128 125 121 117 112 107 104 103 103 102 101 98 96 95 94 92 92 91 90 89 88 88 87 86
75 76 77 78 79 80 81 81 82 83 84 85 86 88 89 90 92 93 95 96 98 101 103 105 108 110 112 113 115 116 117 117 118 119 120 121 122 122 122 123 123 124 124 125 126 128 130 132 134 135 136 137 137 137 137 136 134 132 129 127 124 122 120 117 114 110 105 101 100 99 99 98 97 94 93 91 90 89 88 88 88 87 86 85 84
76 77 78 79 80 81 81 82 83 84 86 88 89 90 92 93 95 96 98 100 102 104 106 109 111 112 114 115 117 117 118 119 120 121 122 123 123 122 123 123 123 124 125 125 127 129 131 133 134 135 136 136 135 134 133 130 128 126 123 121 119 117 115 113 110 107 103 99 97 96 95 95 94 93 91 89 88 87 85 85 85 85 84 83 82
76 77 78 79 80 81 83 84 86 87 89 90 92 93 94 96 97 99 101 103 105 107 109 112 113 115 116 117 118 119 120 121 122 122 123 123 122 122 122 123 124 124 125 126 128 130 131 133 134 134 134 134 132 130 127 125 123 121 118 116 114 113 111 109 107 104 101 97 94 93 92 91 91 90 89 87 85 84 84 83 83 82 81 81 80
77 78 79 80 82 83 85 87 89 90 91 92 93 94 96 98 100 102 104 106 108 110 112 114 115 116 117 117 118 120 121 121 122 122 121 121 121 121 122 123 124 125 126 127 129 130 132 133 133 133 132 130 127 125 122 120 118 117 115 113 110 109 107 105 102 100 97 94 92 90 89 88 87 87 86 85 83 81 81 81 81 80 78 78 79
79 80 81 83 85 87 89 90 91 92 93 93 95 97 100 102 103 105 106 108 110 112 114 115 116 116 117 118 119 120 120 120 120 120 119 119 119 120 121 123 125 126 127 128 130 131 131 132 131 130 128 125 122 120 118 117 115 114 112 109 107 105 103 100 98 95 92 90 89 88 86 85 84 83 83 83 82 79 77 76 78 79 76 74 75
81 83 84 86 87 89 90 91 93 94 96 98 100 102 105 106 107 108 109 110 112 113 114 115 115 116 117 118 119 118 118 117 117 117 117 117 118 120 122 124 126 127 128 130 130 131 131 130 129 127 124 121 118 117 115 114 112 111 109 106 104 101 99 96 93 90 88 86 85 84 83 82 82 81 80 80 79 77 76 73 73 74 75 74 73
84 85 86 87 88 90 91 92 94 97 100 102 105 107 108 109 110 110 111 112 113 114 115 115 116 116 117 117 116 115 115 114 114 115 116 117 119 121 123 126 128 129 130 131 131 130 130 128 126 123 120 118 116 114 113 111 110 108 106 103 101 98 95 92 89 86 84 83 82 81 80 79 79 79 78 78 77 75 74 72 70 70 70 71 73
86 86 87 88 90 92 93 95 98 100 103 105 107 108 110 110 111 112 112 113 114 114 115 115 115 115 114 114 113 112 112 113 113 115 117 119 121 123 126 128 130 131 131 131 131 129 127 125 122 120 117 115 114 112 111 109 107 105 103 100 97 95 91 88 85 83 81 80 79 78 76 76 77 77 75 75 74 73 72 71 69 68 66 67 70
88 88 89 91 93 94 96 98 100 103 105 107 108 109 110 111 111 112 113 114 114 114 114 113 113 112 112 112 111 111 112 113 115 117 119 121 124 126 130 131 132 133 132 131 130 128 125 122 120 118 116 114 113 111 109 107 105 103 100 97 95 92 89 86 83 81 79 77 76 75 74 73 73 75 74 72 72 71 70 69 68 67 65 64 65
89 90 91 93 94 96 98 99 102 104 106 107 108 109 110 111 111 112 112 113 113 112 111 111 110 110 111 111 111 112 114 115 117 120 122 125 128 131 133 135 135 134 132 130 128 125 123 120 118 117 115 113 111 109 107 105 103 100 97 95 93 90 88 85 81 79 77 74 73 73 72 70 70 73 73 71 69 68 68 68 67 66 65 64 63
91 92 93 95 97 98 100 101 103 104 105 107 108 109 110 110 110 111 111 111 110 109 109 109 109 110 111 112 113 115 117 119 121 124 127 129 132 135 138 138 136 134 131 128 126 123 121 119 118 116 114 112 110 107 104 102 100 98 95 93 91 89 87 84 81 78 75 72 70 69 69 68 67 69 71 69 67 66 65 66 67 66 64 63 63
93 94 97 99 100 101 101 102 103 104 105 107 107 108 108 108 108 109 108 108 108 108 109 109 110 112 113 115 117 119 121 123 126 129 132 134 137 140 140 139 136 132 130 127 124 122 120 119 118 116 114 111 108 105 102 100 98 96 94 92 90 87 85 83 80 78 75 71 68 66 66 66 65 65 66 66 64 64 64 66 67 66 65 64 63
96 98 100 102 102 102 102 102 103 104 105 106 106 107 107 106 106 106 106 107 108 109 110 111 113 115 117 120 122 125 127 129 132 134 137 140 142 143 141 137 133 131 128 125 123 121 120 118 117 115 112 110 107 103 100 98 96 94 92 90 87 84 82 80 79 77 74 71 68 66 64 64 64 62 61 61 60 61 62 64 65 66 66 66 65
99 102 103 104 103 102 102 103 103 104 104 105 105 106 105 105 105 106 108 109 110 112 113 115 117 119 122 125 128 131 133 135 137 140 142 144 145 143 139 135 131 129 126 124 122 121 120 118 116 113 111 108 105 102 99 96 94 92 90 87 84 81 79 78 77 75 73 71 69 66 64 63 63 61 59 58 57 58 61 63 64 63 64 66 67
102 104 105 104 103 103 103 104 105 105 105 105 105 106 106 106 108 110 112 113 114 116 118 120 123 126 129 131 134 136 139 140 143 145 147 147 144 140 136 132 130 127 125 123 122 121 120 117 114 112 109 107 104 101 98 95 92 89 86 84 81 78 76 75 75 74 72 70 68 66 64 63 62 60 58 57 55 56 58 62 63 63 63 64 65
104 105 104 104 105 105 106 106 106 106 106 106 107 108 110 112 114 115 116 118 120 122 124 127 130 132 135 137 139 141 144 146 148 149 148 145 141 137 134 131 128 126 124 123 122 121 119 116 113 111 108 105 103 100 97 93 90 86 83 81 78 76 74 73 73 72 71 69 68 66 65 64 61 59 58 56 55 55 56 59 62 63 64 64 64
105 105 105 106 107 108 108 108 108 108 109 110 112 114 116 118 119 121 122 124 126 128 131 133 136 138 140 142 143 146 149 150 150 150 147 142 138 135 132 129 127 125 123 123 122 120 117 115 112 110 107 104 102 99 95 91 87 84 81 78 76 74 73 72 70 70 69 68 67 67 66 65 63 60 58 57 56 55 55 56 58 60 62 64 64
105 106 107 109 109 110 110 111 111 112 114 116 118 120 121 123 124 126 128 130 131 134 136 139 141 143 144 146 148 150 152 153 151 148 143 139 136 133 131 128 126 124 123 122 120 118 116 113 111 109 106 104 101 97 93 89 85 82 79 76 74 72 71 70 69 67 66 66 65 66 66 66 65 62 60 59 57 57 56 56 56 57 59 62 63
107 109 110 111 112 113 114 114 116 117 119 121 122 124 125 127 129 131 132 134 136 139 141 143 145 147 148 150 152 154 154 153 149 144 140 137 135 132 130 127 125 123 122 121 118 116 114 112 110 108 106 103 100 96 91 87 84 80 77 74 72 71 70 69 67 66 65 64 64 64 65 65 66 64 62 60 59 59 58 57 56 56 57 59 61
110 111 112 114 115 116 117 118 120 121 123 125 126 128 129 131 133 135 137 139 141 142 145 147 149 150 152 154 155 155 154 150 146 141 138 136 134 131 129 126 124 123 121 119 117 115 113 111 109 107 104 102 98 94 90 86 83 79 76 73 71 70 69 67 66 65 64 63 62 63 64 65 65 65 63 61 60 60 59 58 56 56 56 56 58
114 114 116 117 118 119 120 121 123 125 126 128 129 131 133 135 137 139 140 142 144 146 148 150 152 154 155 156 156 154 151 146 142 138 136 134 132 130 128 125 124 122 120 118 116 114 111 109 107 105 103 100 97 92 88 85 81 78 75 72 70 69 68 67 66 64 63 62 62 62 63 64 64 64 63 62 61 61 61 60 58 57 57 56 56
117 118 119 120 121 122 123 125 126 128 130 131 133 135 137 139 140 142 144 145 147 149 152 154 156 157 157 156 154 151 147 142 139 136 133 132 130 129 126 124 122 120 118 116 114 112 109 107 105 103 101 98 95 90 87 84 81 78 75 72 70 69 67 67 66 65 63 62 62 62 63 63 63 63 63 62 62 62 63 62 60 58 58 58 56
120 121 122 123 124 125 127 128 130 132 133 135 137 138 140 142 144 145 147 149 151 153 156 157 158 158 156 154 150 146 142 138 135 133 132 130 128 126 124 122 120 119 117 115 113 110 107 105 103 101 99 97 93 88 85 83 81 78 75 72 70 68 67 66 66 65 64 63 62 62 63 64 63 62 62 62 61 62 64 64 62 60 59 59 58
123 124 125 126 128 129 131 132 134 136 137 139 140 142 144 145 147 148 150 153 155 157 159 159 158 156 153 149 145 141 137 135 133 131 130 128 126 124 122 120 119 117 115 113 111 108 106 103 101 100 98 95 91 87 84 82 80 78 75 72 70 68 67 66 66 65 64 63 63 62 63 64 63 62 62 61 61 61 62 64 63 61 60 60 60
126 127 128 130 131 133 134 136 138 139 141 142 144 146 147 149 150 152 154 157 158 159 160 158 156 152 148 143 139 136 134 132 131 130 128 126 123 122 120 118 117 115 113 111 109 107 104 102 100 99 96 93 90 86 83 82 80 77 75 73 71 69 67 67 66 66 64 63 63 63 63 64 63 62 62 62 60 60 61 62 63 62 61 60 61
130 131 132 134 135 136 138 139 141 142 144 146 148 149 151 153 154 156 158 160 160 160 157 154 150 146 142 138 135 133 132 130 129 128 126 123 121 119 118 117 115 113 111 109 107 105 102 100 98 97 95 92 88 84 82 80 79 77 75 73 71 70 68 67 67 66 64 63 63 63 63 64 63 62 63 62 61 60 60 61 62 62 62 61 61
134 135 136 137 139 140 141 143 144 146 148 150 151 153 155 157 159 160 161 160 159 156 152 148 144 140 137 134 133 131 130 128 127 125 123 121 119 117 116 115 113 111 109 107 105 102 100 98 96 95 94 91 87 83 81 79 78 76 74 73 71 70 69 67 67 66 64 63 63 63 63 63 63 62 62 62 62 60 60 60 62 62 62 61 61
138 139 140 141 143 144 145 147 148 150 151 153 155 157 159 161 161 161 160 158 154 149 145 142 138 136 134 132 131 129 128 126 124 122 120 118 117 115 113 112 110 109 107 104 101 98 96 95 94 93 92 90 87 83 81 79 78 76 74 72 71 70 69 67 66 65 64 63 62 62 63 63 63 62 62 62 61 61 60 60 61 62 62 62 61
141 143 144 145 146 147 149 150 152 153 155 157 159 161 162 162 161 159 156 152 147 143 140 137 135 133 132 131 129 127 125 123 121 119 117 115 114 112 110 109 107 105 103 101 97 94 93 92 91 89 89 87 84 82 80 79 78 77 75 73 71 70 69 68 66 65 64 63 62 62 63 63 62 62 62 61 61 61 60 59 60 61 61 61 61
145 146 147 148 150 151 152 154 155 157 159 161 162 162 162 161 158 154 149 145 141 138 136 134 133 132 130 128 126 124 122 120 118 116 114 112 111 109 107 105 103 101 99 96 93 90 89 88 87 86 85 83 81 79 78 78 78 77 75 74 72 71 70 68 67 65 64 63 62 63 63 62 62 62 62 61 60 60 60 60 59 60 60 60 60
148 149 151 152 153 154 155 157 159 160 161 162 162 161 159 156 152 147 143 140 137 135 134 132 131 130 127 125 123 120 118 117 115 113 111 109 108 106 104 101 99 97 95 93 89 87 86 85 84 83 82 81 79 77 76 76 76 75 74 73 72 71 70 68 67 66 65 64 63 63 63 62 61 61 61 61 60 59 60 59 59 59 60 60 59
152 153 154 155 157 158 159 160 161 162 162 161 159 156 152 148 144 141 138 136 135 133 132 130 128 126 124 122 119 117 115 114 112 110 109 106 105 102 100 97 95 93 92 90 87 85 84 82 81 81 80 79 77 75 75 75 75 74 73 72 72 71 70 69 68 67 65 64 64 64 63 62 61 60 61 61 59 59 59 59 58 59 59 59 58
155 156 158 159 160 161 161 162 162 161 159 157 153 149 144 141 139 137 135 134 133 131 129 127 124 122 120 118 117 115 113 111 108 107 105 103 101 99 97 94 92 91 90 89 86 84 82 81 79 79 78 77 75 74 74 74 74 73 72 71 70 70 70 69 68 67 65 65 65 64 63 62 60 59 60 60 59 59 58 58 58 58 58 58 57
158 159 160 161 161 162 162 161 159 157 153 149 145 142 140 138 136 135 133 132 130 127 125 123 121 119 117 115 114 112 110 108 105 103 100 99 97 96 94 92 90 89 88 87 86 83 81 80 79 78 77 76 75 74 73 73 72 71 70 70 69 69 69 69 68 67 65 65 65 64 63 62 60 58 59 59 59 58 58 58 57 57 57 56 56
160 160 161 161 161 161 159 156 153 149 145 142 140 138 137 136 134 132 130 128 125 122 120 118 116 115 114 112 110 108 106 104 101 99 97 95 94 92 91 89 88 86 85 84 83 82 80 79 78 77 76 75 75 74 73 72 71 70 69 69 69 68 68 68 67 66 65 65 64 63 62 61 59 58 58 58 58 57 58 57 57 57 56 55 54
161 161 161 160 158 155 152 148 144 141 139 138 137 136 134 132 130 127 125 122 120 118 116 114 112 111 109 107 105 103 101 99 97 95 94 93 91 90 89 87 86 84 83 82 81 80 79 78 77 76 76 75 74 74 72 71 69 69 68 68 68 67 68 67 67 66 65 65 64 63 62 60 58 57 57 57 57 57 57 56 56 57 56 54 53
160 159 157 154 151 147 144 141 139 137 136 135 133 131 129 126 124 121 119 117 115 113 111 110 108 106 104 102 100 98 96 95 94 92 91 90 89 88 87 86 85 83 82 80 79 78 77 76 76 75 75 75 74 73 71 70 68 67 67 67 66 66 67 66 66 65 64 64 64 63 61 59 58 57 56 56 56 56 56 55 55 55 55 54 52
155 152 149 146 143 141 139 137 136 135 133 130 128 125 123 121 119 117 115 113 112 110 108 106 104 101 99 97 95 94 93 92 91 91 90 89 88 87 86 85 84 82 81 79 78 77 76 75 75 74 74 73 73 72 71 69 68 66 66 65 65 65 65 65 64 63 63 63 62 61 60 58 57 56 55 55 55 55 55 54 54 54 54 53 52
147 144 142 139 138 136 135 134 132 129 127 124 122 120 118 116 115 113 111 110 108 106 104 101 99 97 96 94 93 92 91 90 90 89 88 88 87 86 85 84 82 81 79 78 77 76 75 74 73 72 72 72 71 71 70 68 67 65 64 64 64 64 64 63 62 62 62 62 61 59 58 57 56 55 54 54 54 54 53 53 54 54 53 52 52
141 139 138 136 134 132 130 128 125 122 120 119 117 116 114 113 111 110 108 106 104 102 99 97 96 95 94 93 92 91 90 89 88 88 87 86 85 84 83 82 81 80 78 77 76 75 74 73 72 71 70 70 70 69 68 67 66 65 64 63 63 63 62 61 61 61 61 60 59 58 56 55 55 54 54 53 53 52 52 52 53 53 52 51 51
137 136 134 131 129 126 124 121 119 118 116 115 113 112 111 109 107 106 103 101 100 98 96 95 94 93 92 92 91 90 89 88 87 86 85 84 83 83 82 81 80 79 78 76 75 74 73 72 71 70 69 69 68 68 67 66 65 64 63 62 62 61 61 60 59 59 59 58 58 56 55 54 53 53 53 52 52 51 51 51 52 52 51 51 50
132 130 128 125 122 120 118 117 115 114 113 111 110 108 106 104 102 100 98 97 96 95 94 93 92 91 91 90 89 89 88 87 86 84 83 82 81 80 80 79 78 77 77 76 74 73 72 71 70 69 68 67 67 66 66 65 64 64 63 61 61 60 59 58 59 58 57 56 56 55 53 52 52 52 51 51 51 50 50 50 51 50 50 49 49
126 124 122 120 118 116 115 113 112 110 108 106 104 102 100 98 97 96 95 94 93 92 92 91 90 90 89 88 87 86 85 84 83 82 81 80 79 78 77 75 75 74 74 74 73 72 71 70 69 68 67 66 66 65 65 64 64 63 62 61 60 58 57 57 57 57 56 55 54 53 52 51 51 51 51 50 49 49 49 49 49 49 49 48 48
121 120 118 117 115 114 112 110 108 106 104 101 99 97 96 95 94 93 92 91 91 90 89 89 88 88 87 86 84 83 82 81 80 80 79 78 77 75 74 73 73 72 71 71 70 70 70 69 68 67 66 66 65 65 64 63 63 62 60 59 58 57 56 55 55 55 55 54 53 52 51 50 49 50 50 49 48 48 48 48 48 48 47 47 47
118 117 116 114 112 110 108 106 103 101 99 97 95 94 93 92 91 90 89 89 88 88 87 87 86 85 84 82 81 80 79 78 77 77 76 75 74 73 72 71 71 70 69 69 68 68 68 68 67 66 66 65 64 63 63 62 61 60 59 58 58 56 55 54 54 54 54 53 52 50 49 49 48 48 48 48 47 47 47 47 47 46 46 46 46
116 114 112 110 107 105 102 100 98 96 95 93 92 91 90 89 88 88 87 87 86 85 85 84 83 82 81 79 78 77 76 75 75 74 74 73 72 71 70 70 69 69 69 68 67 67 66 66 66 65 64 63 63 62 61 60 59 58 57 57 57 56 54 53 52 52 53 52 51 50 49 48 47 47 47 46 46 46 46 46 46 45 45 45 45
112 110 107 104 102 100 98 97 95 94 92 91 90 89 88 87 86 85 85 84 83 82 82 81 80 79 78 77 76 75 74 73 73 72 72 71 70 69 69 68 68 68 68 67 67 66 65 64 64 63 62 61 60 60 60 59 58 57 56 56 55 54 53 52 51 51 51 51 50 49 48 47 46 45 45 45 45 45 45 44 44 44 44 44 44
106 104 102 100 98 97 96 94 93 92 90 89 88 87 86 85 84 83 82 82 81 80 79 78 77 76 76 75 74 73 73 72 72 71 70 70 69 68 68 67 67 67 67 66 65 64 63 62 61 60 59 58 58 58 58 58 56 55 55 54 54 53 52 51 50 50 50 49 49 48 48 47 45 44 44 44 44 44 44 43 43 43 43 43 43
101 99 98 96 95 94 93 92 90 89 88 87 85 84 83 82 82 81 80 79 78 77 77 76 75 75 74 74 73 72 72 71 70 70 69 69 68 68 67 67 66 65 65 64 63 62 61 60 59 58 57 56 56 56 56 56 55 54 53 53 52 52 51 50 49 49 49 48 48 48 47 45 44 43 43 43 43 43 43 42 42 42 42 42 41
Wind_Direction
286 286 287 287 287 287 287 287 288 288 287 287 287 287 287 287 287 288 288 289 290 290 291 292 292 293 293 293 294 295 295 296 296 296 295 295 294 293 293 292 292 292 293 293 293 294 294 295 295 295 295 296 296 296 297 297 297 297 297 297 297 297 297 296 296 295 294 293 292 291 290 289 288 287 286 285 284 283 282 281 280 279 278 276 275
287 287 287 287 287 286 287 287 287 287 287 287 287 287 287 287 288 289 289 290 291 291 291 292 292 292 293 293 294 294 295 295 295 294 294 293 293 293 292 292 292 293 293 294 294 295 295 296 296 296 296 297 297 297 298 298 298 298 297 297 297 297 296 296 296 295 294 293 292 292 290 289 288 287 285 284 283 282 281 280 279 278 277 275 274
286 287 287 286 286 287 287 287 287 287 286 286 287 287 287 288 289 289 290 291 291 291 291 291 291 292 292 293 293 294 294 294 294 293 293 293 293 292 293 293 293 293 294 295 295 296 296 297 297 297 297 298 298 298 298 298 298 298 297 297 297 296 296 296 295 295 294 293 292 291 290 289 288 287 285 284 283 281 280 279 278 277 277 276 274
286 286 286 286 286 287 287 287 286 286 286 287 287 287 288 289 289 290 290 291 291 291 291 291 291 292 292 293 293 293 293 293 293 292 292 292 292 293 293 293 294 294 295 296 297 297 298 298 298 298 298 299 299 299 299 299 298 298 297 297 297 296 296 296 295 295 294 293 292 291 289 288 287 286 285 284 282 281 280 278 277 276 276 276 275
286 286 286 286 287 287 286 286 286 286 286 287 287 288 289 289 289 290 290 290 290 290 290 291 291 292 292 293 293 293 293 292 292 292 292 293 293 293 294 294 295 296 297 298 299 299 299 299 299 299 299 300 300 300 299 299 298 298 297 297 297 296 296 295 295 294 294 293 291 290 289 287 286 285 284 283 281 280 280 278 277 276 275 275 274
286 286 286 287 287 287 286 286 286 286 286 287 288 289 289 289 290 290 290 290 290 290 291 291 291 292 292 292 292 292 292 292 292 292 293 293 294 295 296 296 297 298 299 300 300 300 300 300 300 300 300 300 300 300 299 299 298 298 298 297 297 296 296 295 295 294 294 293 291 289 288 286 285 284 283 282 280 279 279 278 278 277 275 274 274
286 286 287 288 288 287 287 286 287 287 287 287 288 288 289 289 290 290 290 290 290 290 290 291 291 291 292 292 292 292 292 292 292 293 294 295 296 297 298 299 299 300 301 301 301 301 301 301 301 301 301 301 301 300 300 299 299 298 298 298 297 296 296 295 295 294 293 292 290 289 287 286 284 283 282 282 280 279 278 277 277 277 277 275 273
286 287 288 288 288 287 287 287 287 287 287 287 287 288 289 289 290 290 290 290 290 290 290 291 291 291 291 291 291 292 292 293 294 295 296 297 298 299 300 301 302 303 303 303 303 303 303 302 302 302 302 302 301 301 300 300 300 299 299 298 297 297 296 295 294 293 292 291 289 288 287 286 284 283 282 281 280 280 279 277 275 275 276 276 274
287 288 289 289 289 289 289 289 288 288 287 287 288 288 289 289 290 290 290 290 290 290 290 290 291 291 291 291 292 293 294 295 296 297 299 300 301 302 303 304 304 305 305 304 304 304 304 303 303 303 302 302 302 302 301 301 300 300 299 299 298 297 296 296 295 294 292 291 289 287 286 285 284 283 282 281 281 280 279 278 276 274 274 274 274
288 289 290 290 290 290 290 289 289 288 288 288 288 288 289 289 289 289 289 290 290 290 290 291 291 291 292 292 293 295 296 297 299 300 302 303 304 305 306 306 306 306 306 306 305 305 304 304 304 303 303 303 303 302 302 301 301 300 300 299 299 298 297 296 295 294 292 291 289 287 286 285 284 282 281 280 280 280 279 279 277 275 273 271 271
289 290 290 290 290 290 290 289 289 288 288 288 288 288 288 289 289 289 289 290 290 290 291 291 291 292 294 295 296 298 299 301 302 304 305 306 307 308 308 308 308 308 307 307 306 306 305 305 304 304 304 304 304 303 303 302 302 301 301 300 300 299 298 297 295 294 292 291 289 288 286 285 284 283 282 281 280 280 280 279 278 276 274 272 270
288 289 289 290 290 290 289 289 288 288 288 288 289 288 289 289 289 289 290 290 290 291 291 292 294 295 297 298 300 301 302 304 305 307 308 309 310 310 310 310 309 308 308 307 306 306 306 305 305 305 305 305 304 304 304 303 303 302 302 301 300 300 299 297 296 294 292 290 289 288 286 284 283 282 282 281 281 280 279 278 277 276 274 272 271
288 289 290 290 290 289 289 289 289 289 289 289 289 289 289 289 290 290 290 291 291 292 294 296 297 299 300 302 303 304 306 307 308 309 310 311 311 312 311 311 310 309 308 307 307 307 307 306 306 306 306 305 305 304 304 304 303 303 303 302 301 300 299 298 296 294 292 290 288 287 285 284 282 281 281 282 281 280 279 278 277 275 274 272 271
289 289 290 290 290 290 290 290 290 291 291 291 290 290 291 291 291 291 292 293 294 296 298 300 301 303 304 305 306 308 309 310 311 311 312 312 313 312 312 311 310 309 308 308 307 307 307 307 307 306 306 305 305 305 305 304 304 304 303 302 301 301 299 298 296 294 292 291 289 286 285 283 281 280 279 280 280 280 279 278 277 276 275 273 272
289 290 290 290 291 291 291 292 292 293 293 293 293 293 293 293 293 294 295 297 299 300 302 303 305 306 307 308 309 310 311 312 312 313 313 313 313 312 311 310 309 309 308 308 308 308 308 307 307 307 306 306 305 305 305 305 304 304 303 302 301 301 299 298 296 295 293 292 290 288 286 284 282 280 279 278 278 277 276 276 276 276 277 276 274
290 290 290 291 292 292 293 294 294 295 295 295 296 296 295 296 297 299 300 301 303 304 305 306 308 309 310 311 312 312 313 313 313 313 313 313 313 312 311 310 309 309 309 309 309 309 308 307 307 307 307 306 306 306 305 305 304 304 303 302 301 301 299 298 296 295 294 292 291 289 287 284 283 282 280 279 277 277 276 275 275 275 275 275 276
290 291 291 292 293 294 295 296 297 297 297 298 298 298 299 301 302 303 304 305 306 307 308 309 310 311 312 312 313 313 313 313 313 313 313 313 312 311 310 310 309 309 309 309 309 309 308 307 307 307 307 306 306 306 305 305 304 304 303 302 302 301 300 298 296 295 294 292 291 289 287 285 283 282 281 279 278 277 277 277 277 276 275 275 274
292 292 294 295 296 297 298 298 298 299 299 300 301 303 304 305 306 306 307 308 309 309 310 311 311 312 312 313 313 313 313 313 313 313 312 312 311 311 310 310 309 309 309 309 309 308 308 308 307 307 307 306 306 305 305 305 304 304 303 303 302 301 300 298 297 296 294 293 292 290 288 286 284 283 281 280 279 277 276 277 278 278 278 277 275
294 295 296 297 298 298 299 299 300 301 303 304 305 306 307 307 307 308 309 309 310 311 311 312 312 312 313 313 313 313 313 313 312 312 312 311 311 310 310 309 309 309 310 309 309 308 308 308 307 307 307 306 306 305 305 305 305 304 304 303 303 302 300 298 297 295 294 293 292 291 290 288 286 285 283 281 280 278 277 276 277 277 278 278 277
296 297 298 298 299 300 301 302 303 304 305 306 306 307 307 307 308 309 309 310 311 311 311 312 312 312 312 313 313 313 312 312 312 311 311 311 310 310 310 309 309 309 309 309 308 308 308 307 307 307 306 306 305 305 305 305 305 305 304 304 303 301 300 298 296 295 294 293 292 291 290 289 288 287 286 284 283 281 279 278 277 276 276 277 277
297 298 298 299 300 301 302 303 304 305 305 306 306 306 307 308 308 309 310 310 311 311 311 311 311 312 312 312 312 312 311 311 311 311 311 310 310 309 309 309 309 309 309 308 308 308 307 307 307 307 306 306 305 305 305 305 305 305 304 303 302 301 299 297 296 294 293 292 292 291 290 289 289 288 287 287 286 284 283 281 279 277 276 276 276
298 299 299 300 301 302 302 303 304 304 305 305 305 306 307 308 308 309 309 310 310 310 311 311 311 311 312 311 311 311 311 310 310 310 310 310 309 309 309 309 309 309 308 307 307 307 307 307 307 306 306 305 305 305 305 306 306 305 304 303 302 300 298 297 296 294 293 293 292 291 290 289 289 289 288 288 287 286 284 283 281 279 277 275 275
299 299 300 300 301 302 302 303 303 304 304 305 306 307 307 308 308 308 309 309 310 310 310 310 310 311 311 311 310 310 310 310 310 310 309 309 309 308 309 309 308 308 307 307 307 307 307 306 306 306 305 305 304 304 305 306 305 304 304 303 302 300 298 297 296 294 294 293 292 291 290 289 289 290 290 290 289 288 287 285 284 282 280 278 276
299 299 299 300 301 301 302 303 303 304 304 305 306 306 307 307 307 308 308 309 309 309 310 310 310 310 310 310 310 309 309 309 309 309 309 308 308 308 308 308 307 307 307 306 306 306 306 306 305 305 305 304 304 304 305 306 305 304 303 302 301 299 298 297 296 295 295 294 293 292 291 290 290 291 291 291 291 290 288 287 286 285 283 281 278
298 299 299 300 301 301 302 303 303 304 305 305 305 305 306 306 307 308 308 309 309 309 309 309 309 309 309 309 309 308 308 308 308 308 307 307 307 307 307 307 306 306 306 306 306 305 305 305 305 305 304 303 303 304 305 305 304 303 302 301 300 299 298 297 296 296 296 295 294 293 292 291 291 291 291 290 290 290 289 288 287 286 284 283 281
298 299 299 300 301 302 302 303 303 304 304 304 305 305 306 306 307 307 308 308 308 308 308 308 308 308 308 308 308 308 307 307 307 307 306 306 307 307 306 306 305 305 305 305 305 305 305 305 305 304 303 303 304 305 305 304 303 302 301 300 299 299 298 297 297 296 296 295 294 293 292 292 291 291 290 290 289 289 289 288 288 287 285 284 282
298 299 299 300 301 302 302 302 303 303 303 304 304 305 305 306 307 307 307 307 307 307 307 307 307 307 307 307 307 306 306 306 306 306 306 306 306 306 305 305 305 304 305 305 304 304 305 305 304 303 302 302 303 304 304 303 302 302 301 300 299 299 298 298 297 296 296 295 294 294 293 292 292 291 291 290 289 289 289 288 288 287 286 285 284
298 299 300 300 300 301 301 302 302 302 303 304 304 305 305 306 306 306 306 306 306 306 306 306 306 306 306 306 306 306 306 306 305 305 305 305 305 305 305 304 304 304 304 304 304 304 304 304 303 302 302 302 302 303 303 302 301 300 300 300 299 299 298 297 297 296 295 295 294 293 293 292 292 292 291 291 290 290 289 288 288 287 286 285 284
298 298 299 299 299 300 301 301 302 302 303 304 304 305 305 305 305 305 305 305 305 305 305 305 305 305 305 305 305 305 305 305 305 305 304 304 304 304 304 303 303 303 303 303 303 303 303 303 302 302 302 302 302 302 302 301 300 299 298 298 298 297 297 296 296 295 295 294 294 293 292 292 292 292 291 291 291 290 289 289 288 287 286 285 284
297 297 298 298 299 300 300 301 302 302 303 303 304 304 304 304 304 304 304 304 304 304 304 304 304 304 304 304 304 304 304 304 304 303 303 303 303 302 302 302 302 302 302 301 302 302 302 301 301 301 301 301 301 301 301 300 299 298 297 297 297 296 296 296 295 295 294 294 294 293 292 292 292 292 291 291 290 290 289 288 287 287 286 285 284
296 297 297 298 299 299 300 301 301 302 302 303 303 303 303 303 303 303 303 303 303 303 303 303 303 303 303 304 304 303 303 303 302 302 302 301 301 301 301 301 300 300 300 300 300 300 300 299 299 299 299 299 299 300 300 299 298 298 298 297 297 296 296 296 295 295 295 295 294 293 292 292 292 292 291 290 290 290 288 287 286 286 285 285 284
296 296 297 298 299 299 300 301 301 301 302 302 302 302 302 303 303 303 302 302 303 303 303 303 303 303 303 303 303 302 302 301 301 300 300 300 300 300 299 299 299 299 299 298 298 299 298 298 298 298 297 298 298 299 298 298 297 297 297 297 297 296 296 296 296 295 295 295 294 293 292 292 292 292 291 290 290 289 288 287 286 285 284 284 284
296 296 297 298 298 299 299 300 300 301 301 301 301 302 302 302 302 302 302 302 302 302 302 302 302 302 302 302 301 301 300 300 299 299 299 299 299 299 299 299 298 298 297 297 298 298 298 298 298 297 297 297 297 297 297 296 296 296 296 296 296 296 296 296 296 296 295 295 294 293 292 292 292 291 291 290 289 288 287 287 286 285 284 284 283
296 297 297 298 298 299 299 299 300 300 300 301 301 301 301 301 301 301 301 301 301 301 301 301 301 301 301 300 300 299 299 299 299 299 299 299 298 298 298 298 298 298 298 298 298 298 298 298 297 297 296 296 296 296 296 295 295 295 295 295 296 296 295 295 295 295 295 294 293 292 292 292 291 291 290 290 289 288 287 286 286 285 284 284 284
296 296 297 297 298 298 299 299 300 300 300 300 300 300 300 300 300 301 301 301 301 301 301 301 300 300 300 299 299 298 298 298 298 298 299 299 298 298 298 298 298 298 298 298 298 298 298 298 297 296 296 296 296 295 295 294 294 294 295 295 295 295 294 294 294 294 294 293 292 292 292 291 291 291 290 289 289 288 287 286 285 284 284 284 284
296 296 297 297 298 298 299 299 299 299 299 300 300 300 300 300 300 300 300 300 300 300 300 300 299 299 298 298 298 298 298 298 298 298 298 298 298 298 298 298 298 298 298 299 299 299 299 298 297 296 296 295 295 294 294 294 294 294 294 294 294 293 293 293 293 292 292 292 292 292 291 291 291 290 289 288 288 287 286 286 285 284 283 283 283
296 296 297 297 298 298 298 298 299 299 299 299 299 299 299 299 299 299 299 299 299 299 298 298 298 298 297 297 297 298 298 298 298 298 297 297 297 297 297 297 297 297 298 298 298 298 298 297 296 296 295 295 294 294 293 293 293 293 293 293 292 292 292 292 291 292 292 291 291 291 291 290 290 290 289 288 287 287 286 285 285 284 283 283 283
296 296 297 297 297 297 297 298 298 298 298 298 298 298 298 298 298 298 298 298 298 297 297 297 297 297 297 297 297 297 297 297 297 297 297 297 297 297 297 297 297 297 297 297 297 297 297 296 295 295 294 294 293 293 293 293 293 293 292 292 291 291 291 290 290 291 291 290 290 290 290 290 290 289 288 287 287 286 285 285 284 284 283 283 283
296 296 296 296 297 297 297 297 297 297 297 297 297 297 297 297 297 297 297 297 297 297 296 296 296 296 297 297 297 297 296 296 296 296 296 296 297 297 297 297 297 297 297 297 297 296 295 295 294 294 293 293 293 293 292 292 292 292 291 291 291 290 289 289 289 290 289 289 289 289 289 289 289 288 287 287 286 285 285 284 284 283 283 283 282
295 295 295 296 296 296 296 296 296 296 296 296 297 297 297 297 297 297 297 296 296 296 296 296 297 297 297 297 296 296 296 296 296 296 296 296 296 296 297 297 296 296 296 296 295 295 294 293 293 292 292 292 292 292 292 291 291 291 290 290 289 288 288 288 288 288 288 288 288 288 288 288 288 287 287 286 285 284 284 284 283 282 282 282 282
294 294 295 295 295 295 295 296 296 296 296 296 296 296 297 297 297 297 297 297 297 297 297 297 297 297 297 296 296 296 296 296 296 296 296 296 296 296 296 296 296 295 295 295 294 293 293 292 292 292 291 291 291 290 290 290 290 290 289 289 288 287 287 287 287 287 287 287 287 287 287 287 287 287 286 285 284 284 284 283 282 282 282 281 281
294 294 294 294 295 295 295 295 295 296 296 296 296 297 297 297 297 297 297 297 297 297 297 297 297 297 297 296 296 296 296 296 296 296 296 296 296 296 295 295 295 294 294 294 293 292 292 292 291 291 291 290 290 290 290 290 290 289 289 288 287 287 287 287 286 286 286 286 286 287 287 287 286 286 285 284 284 283 283 282 282 282 282 281 281
293 294 294 294 295 295 295 295 296 296 296 297 297 297 297 297 297 297 297 297 296 296 296 296 296 296 296 296 296 296 295 295 295 295 295 295 295 294 294 294 294 294 293 292 292 292 292 291 291 291 290 290 290 290 290 290 289 289 288 288 287 287 287 287 286 286 286 286 286 286 286 286 285 285 284 284 283 282 282 282 281 281 281 281 281
293 294 294 295 295 295 296 296 296 296 297 297 296 296 296 296 296 296 296 295 295 295 295 295 295 295 295 295 295 295 295 295 295 294 294 294 293 293 293 293 293 293 293 292 292 292 291 291 291 290 290 290 289 289 289 289 289 288 288 288 287 287 287 287 286 286 286 286 286 286 286 285 285 284 283 283 282 282 281 281 281 280 280 280 280
294 294 295 295 296 296 296 297 297 297 296 296 296 296 296 295 295 295 294 294 294 294 294 294 294 294 294 294 294 294 294 294 293 293 293 292 292 292 292 292 291 291 291 291 292 291 291 291 291 290 290 290 289 289 289 289 288 288 288 287 287 287 287 286 286 286 286 286 285 285 285 285 284 283 282 282 282 281 281 280 280 280 280 280 280
295 295 296 296 297 297 297 297 297 296 296 296 296 295 295 295 294 294 294 294 294 294 294 293 293 293 293 293 293 293 293 292 292 292 291 291 291 291 291 291 290 290 290 290 290 290 291 291 291 290 290 289 289 288 288 288 287 287 287 288 288 287 287 286 286 286 286 285 285 285 284 284 283 282 282 281 281 281 280 280 279 279 279 279 279
296 296 296 297 297 297 297 296 296 296 295 295 295 294 294 294 294 294 293 293 293 293 293 292 292 292 292 292 292 292 292 291 291 291 291 291 291 291 291 290 290 290 290 290 290 290 290 290 290 290 289 289 288 288 287 287 287 287 288 287 287 287 287 286 286 286 285 285 285 284 284 283 282 281 281 281 281 280 280 279 279 279 279 279 279
296 296 296 296 296 296 295 295 295 295 295 294 294 294 294 294 294 293 293 293 293 292 292 292 292 292 292 292 292 292 292 291 291 291 291 291 291 291 291 291 291 291 290 290 290 290 289 289 289 289 288 288 288 288 287 287 287 287 287 287 287 287 286 286 286 285 285 284 284 284 283 282 281 281 280 280 280 279 279 278 279 279 278 278 278
296 296 296 296 295 295 295 295 295 295 295 295 294 294 294 294 293 293 293 293 292 292 292 292 292 292 292 293 292 292 292 292 292 292 291 292 292 292 292 292 291 291 290 290 289 289 289 288 288 288 287 288 288 288 288 288 288 287 287 287 287 286 286 286 286 285 284 284 283 283 281 281 280 280 279 279 279 278 278 278 278 278 278 277 277
295 295 295 295 295 295 295 295 295 295 295 294 294 294 294 293 293 293 293 292 292 292 293 293 293 293 293 293 293 292 292 292 292 292 292 292 292 293 292 291 291 290 290 289 289 289 288 288 288 288 288 288 288 288 288 288 288 287 287 287 286 286 286 286 285 284 283 283 282 281 281 280 280 279 278 278 277 277 277 277 277 276 276 276 276
294 295 295 295 295 295 295 295 295 295 294 294 294 294 293 293 293 293 292 292 293 293 293 293 293 293 293 293 293 293 293 293 293 293 293 293 293 292 291 291 290 290 290 289 289 289 289 289 289 289 289 289 289 288 288 288 288 287 287 286 286 285 285 285 284 283 282 281 281 280 280 279 279 278 277 276 276 276 276 276 275 275 275 274 274
Height
10623 10621 10620 10618 10616 10613 10610 10608 10606 10603 10600 10596 10593 10590 10587 10583 10580 10576 10573 10569 10565 10561 10556 10552 10547 10543 10538 10533 10528 10523 10519 10514 10510 10504 10498 10490 10483 10477 10470 10463 10455 10448 10441 10434 10426 10417 10408 10399 10390 10381 10372 10364 10357 10349 10341 10332 10324 10315 10305 10297 10289 10281 10276 10272 10270 10274 10272 10259 10254 10252 10243 10238 10237 10229 10224 10224 10218 10214 10213 10211 10209 10207 10206 10207 10207
10614 10613 10611 10609 10606 10603 10601 10599 10596 10593 10589 10586 10583 10580 10577 10573 10569 10566 10562 10558 10554 10550 10545 10540 10536 10531 10526 10521 10516 10512 10507 10502 10497 10491 10484 10476 10470 10463 10456 10448 10440 10433 10426 10418 10410 10401 10392 10382 10373 10364 10356 10348 10341 10333 10325 10316 10306 10297 10288 10279 10272 10264 10257 10254 10251 10252 10255 10247 10237 10234 10225 10218 10219 10216 10209 10208 10205 10201 10199 10196 10193 10192 10191 10191 10192
10605 10603 10601 10599 10596 10594 10592 10589 10586 10582 10579 10576 10573 10570 10566 10563 10559 10555 10551 10547 10543 10538 10533 10528 10523 10519 10514 10509 10504 10499 10494 10489 10483 10477 10470 10463 10456 10449 10441 10433 10425 10417 10410 10402 10394 10385 10375 10366 10356 10348 10339 10332 10325 10317 10308 10299 10289 10280 10272 10263 10255 10248 10240 10236 10234 10232 10234 10232 10223 10218 10211 10201 10198 10198 10195 10192 10190 10188 10186 10182 10179 10177 10176 10176 10178
10596 10594 10592 10589 10587 10584 10582 10579 10575 10572 10569 10566 10563 10559 10555 10552 10548 10544 10541 10536 10532 10527 10521 10516 10511 10506 10502 10497 10492 10486 10481 10475 10468 10462 10455 10449 10442 10434 10426 10417 10409 10401 10393 10386 10377 10368 10358 10349 10340 10331 10323 10315 10308 10300 10290 10281 10272 10263 10255 10248 10240 10233 10226 10219 10217 10215 10215 10215 10208 10202 10196 10189 10182 10180 10179 10177 10175 10173 10172 10170 10166 10164 10163 10162 10163
10586 10584 10582 10580 10577 10574 10572 10568 10565 10562 10559 10555 10551 10548 10544 10541 10537 10534 10530 10525 10520 10515 10509 10503 10498 10494 10489 10484 10478 10472 10466 10460 10453 10447 10440 10433 10426 10418 10409 10400 10392 10384 10377 10369 10359 10350 10341 10332 10323 10314 10307 10299 10291 10283 10273 10264 10256 10247 10239 10233 10225 10218 10212 10205 10201 10198 10196 10196 10193 10186 10180 10175 10169 10164 10162 10162 10162 10159 10157 10155 10153 10152 10152 10150 10148
10576 10574 10572 10570 10568 10565 10561 10558 10555 10552 10548 10544 10540 10537 10533 10529 10526 10523 10518 10513 10507 10502 10496 10491 10486 10481 10476 10471 10464 10458 10452 10445 10439 10432 10425 10418 10409 10401 10392 10382 10374 10367 10360 10352 10342 10333 10324 10314 10306 10298 10290 10283 10275 10266 10257 10247 10239 10231 10223 10217 10210 10203 10197 10191 10186 10183 10180 10177 10175 10171 10166 10160 10155 10151 10147 10145 10147 10147 10145 10143 10139 10137 10140 10140 10136
10566 10564 10562 10560 10557 10554 10550 10548 10545 10541 10536 10533 10529 10525 10521 10518 10515 10511 10506 10500 10494 10489 10483 10478 10473 10468 10463 10457 10450 10443 10437 10430 10424 10417 10410 10402 10393 10384 10375 10365 10357 10350 10342 10333 10324 10316 10307 10297 10289 10281 10273 10266 10258 10249 10240 10231 10223 10215 10208 10201 10195 10189 10183 10178 10173 10169 10166 10162 10157 10154 10151 10146 10142 10139 10135 10131 10130 10132 10134 10134 10129 10124 10125 10127 10126
10556 10554 10553 10550 10546 10543 10540 10537 10534 10529 10525 10521 10517 10513 10509 10506 10503 10498 10493 10487 10481 10476 10471 10466 10460 10455 10449 10443 10436 10429 10422 10415 10409 10401 10393 10385 10376 10368 10358 10347 10340 10332 10324 10315 10306 10298 10289 10280 10271 10263 10256 10248 10240 10232 10223 10215 10207 10199 10192 10185 10180 10174 10169 10164 10160 10155 10152 10148 10143 10139 10136 10132 10127 10125 10123 10119 10117 10118 10119 10121 10121 10116 10113 10112 10111
10546 10544 10542 10538 10534 10532 10529 10526 10522 10517 10513 10509 10504 10500 10497 10493 10489 10484 10479 10473 10468 10463 10458 10453 10447 10440 10434 10428 10421 10415 10408 10401 10393 10385 10377 10369 10360 10350 10340 10330 10322 10315 10306 10297 10289 10280 10271 10263 10254 10246 10239 10231 10223 10215 10207 10199 10191 10183 10177 10170 10164 10159 10154 10149 10145 10142 10138 10134 10129 10126 10123 10118 10114 10111 10110 10107 10106 10107 10105 10105 10107 10107 10106 10102 10097
10535 10532 10530 10526 10523 10521 10518 10514 10510 10505 10500 10496 10492 10488 10484 10480 10475 10470 10465 10459 10454 10450 10445 10439 10432 10425 10418 10412 10406 10400 10393 10385 10377 10369 10360 10352 10343 10333 10323 10314 10306 10298 10289 10279 10271 10263 10254 10246 10237 10229 10222 10214 10206 10199 10191 10183 10176 10168 10161 10155 10149 10144 10140 10135 10131 10128 10124 10120 10116 10112 10110 10106 10101 10097 10097 10097 10094 10094 10093 10092 10093 10094 10095 10095 10089
10524 10521 10519 10515 10512 10509 10506 10503 10498 10492 10487 10483 10479 10475 10470 10466 10461 10456 10451 10445 10440 10436 10430 10423 10416 10409 10403 10396 10390 10384 10376 10369 10361 10352 10344 10335 10327 10317 10306 10297 10289 10280 10272 10263 10253 10245 10237 10229 10221 10212 10205 10198 10190 10183 10176 10168 10160 10153 10146 10140 10134 10129 10125 10121 10118 10115 10111 10107 10103 10099 10097 10096 10091 10084 10083 10085 10084 10083 10082 10081 10081 10081 10082 10084 10082
10513 10511 10508 10504 10501 10497 10494 10490 10485 10479 10474 10469 10465 10461 10456 10452 10447 10442 10436 10431 10427 10421 10414 10407 10400 10393 10387 10380 10373 10366 10359 10352 10344 10335 10327 10319 10310 10301 10289 10280 10272 10263 10255 10246 10236 10228 10220 10211 10203 10195 10188 10181 10174 10168 10161 10153 10145 10138 10132 10126 10119 10114 10110 10106 10104 10102 10098 10095 10092 10087 10083 10084 10082 10074 10070 10073 10074 10072 10071 10069 10068 10069 10070 10072 10073
10502 10499 10495 10491 10488 10484 10481 10477 10472 10467 10461 10455 10450 10446 10442 10438 10433 10427 10422 10416 10411 10405 10398 10391 10384 10377 10370 10363 10356 10349 10341 10335 10327 10318 10310 10303 10294 10285 10273 10263 10254 10246 10237 10229 10220 10211 10203 10194 10186 10178 10171 10165 10159 10153 10146 10138 10130 10123 10118 10112 10106 10100 10095 10091 10089 10087 10084 10083 10081 10077 10072 10071 10071 10067 10061 10061 10063 10063 10061 10058 10055 10057 10059 10061 10061
10490 10486 10482 10478 10475 10471 10468 10464 10459 10454 10447 10440 10435 10431 10427 10423 10418 10412 10407 10400 10394 10388 10381 10375 10368 10361 10354 10345 10338 10331 10324 10318 10311 10301 10293 10286 10278 10268 10258 10247 10238 10229 10220 10212 10204 10195 10187 10179 10170 10162 10155 10149 10144 10138 10132 10125 10117 10111 10105 10099 10093 10088 10082 10077 10074 10071 10069 10069 10068 10066 10063 10059 10059 10058 10054 10052 10053 10053 10051 10047 10044 10045 10047 10048 10049
10477 10473 10468 10465 10463 10459 10454 10450 10445 10439 10433 10426 10421 10416 10411 10408 10403 10396 10391 10384 10377 10371 10365 10359 10352 10344 10337 10329 10320 10314 10307 10301 10293 10285 10276 10269 10261 10251 10241 10231 10222 10213 10205 10197 10188 10180 10171 10163 10156 10148 10141 10135 10129 10123 10118 10112 10105 10099 10093 10087 10081 10076 10070 10065 10061 10057 10055 10054 10053 10053 10052 10049 10047 10046 10046 10045 10045 10043 10041 10038 10036 10035 10034 10033 10034
10464 10459 10455 10453 10450 10446 10441 10436 10430 10424 10418 10412 10406 10400 10395 10392 10386 10380 10374 10367 10361 10355 10348 10342 10335 10328 10320 10312 10305 10297 10290 10283 10276 10267 10259 10252 10244 10234 10224 10215 10206 10197 10189 10182 10173 10164 10155 10148 10141 10135 10127 10121 10114 10109 10104 10099 10093 10087 10082 10076 10070 10065 10059 10054 10049 10045 10043 10041 10039 10039 10039 10038 10036 10035 10035 10036 10036 10034 10030 10027 10026 10027 10026 10022 10020
10450 10445 10442 10440 10436 10431 10426 10421 10415 10409 10404 10397 10390 10384 10379 10374 10369 10363 10357 10351 10345 10338 10332 10325 10318 10311 10304 10297 10289 10281 10273 10266 10258 10250 10242 10235 10227 10217 10207 10198 10190 10182 10175 10167 10158 10148 10139 10132 10127 10120 10113 10107 10101 10095 10090 10086 10082 10076 10071 10065 10060 10054 10049 10043 10037 10033 10031 10029 10027 10026 10026 10025 10025 10024 10023 10024 10025 10025 10022 10017 10015 10015 10015 10013 10010
10435 10432 10429 10425 10421 10416 10411 10406 10400 10394 10388 10381 10374 10368 10363 10358 10352 10346 10341 10335 10329 10322 10315 10308 10301 10294 10288 10280 10273 10265 10256 10248 10241 10233 10225 10217 10209 10200 10191 10182 10174 10167 10160 10152 10143 10133 10124 10118 10112 10106 10099 10094 10087 10082 10077 10074 10070 10065 10059 10054 10049 10043 10038 10033 10028 10023 10020 10017 10014 10013 10013 10012 10013 10013 10013 10013 10014 10014 10013 10009 10006 10003 10002 10001 9999
10422 10419 10415 10411 10405 10401 10396 10390 10384 10378 10371 10365 10359 10353 10348 10342 10336 10331 10325 10319 10312 10306 10299 10292 10285 10278 10271 10264 10257 10248 10239 10231 10224 10216 10208 10200 10192 10183 10175 10167 10160 10153 10146 10137 10127 10119 10111 10104 10098 10091 10086 10080 10074 10068 10064 10061 10057 10053 10047 10043 10038 10033 10028 10024 10019 10015 10011 10007 10004 10001 9999 9998 9999 10000 10001 10001 10002 10003 10003 10001 9998 9995 9992 9989 9987
10410 10406 10401 10396 10390 10385 10379 10373 10368 10362 10357 10351 10345 10339 10334 10327 10321 10316 10309 10303 10297 10290 10282 10275 10268 10261 10254 10247 10240 10232 10222 10213 10206 10200 10192 10182 10174 10166 10159 10151 10145 10139 10131 10121 10112 10105 10098 10090 10084 10077 10072 10066 10060 10055 10052 10049 10045 10041 10036 10032 10028 10023 10018 10014 10010 10006 10003 9999 9995 9992 9989 9987 9985 9987 9988 9988 9989 9989 9990 9990 9989 9987 9984 9980 9977
10396 10391 10386 10380 10375 10369 10364 10359 10354 10348 10343 10337 10331 10325 10319 10313 10307 10301 10294 10288 10281 10274 10267 10259 10252 10245 10238 10231 10223 10215 10205 10196 10189 10183 10175 10165 10156 10149 10143 10137 10130 10124 10116 10106 10098 10091 10084 10077 10070 10064 10058 10052 10046 10043 10040 10037 10033 10028 10025 10021 10017 10013 10009 10004 10000 9997 9994 9991 9987 9983 9981 9978 9975 9975 9976 9977 9977 9976 9976 9977 9977 9976 9975 9972 9968
10380 10376 10371 10365 10360 10355 10350 10346 10341 10335 10329 10323 10317 10312 10305 10299 10293 10286 10279 10273 10266 10259 10251 10243 10236 10229 10222 10215 10207 10197 10188 10180 10172 10166 10158 10148 10139 10133 10128 10122 10115 10107 10100 10092 10085 10078 10071 10065 10058 10051 10046 10039 10033 10030 10028 10025 10021 10016 10013 10010 10006 10002 9998 9995 9991 9988 9984 9982 9979 9974 9971 9969 9965 9964 9965 9966 9965 9964 9963 9963 9964 9964 9963 9962 9960
10365 10360 10355 10351 10346 10342 10337 10332 10327 10321 10315 10309 10303 10297 10291 10284 10278 10271 10265 10258 10251 10243 10235 10227 10220 10214 10207 10199 10190 10180 10171 10163 10157 10149 10141 10132 10124 10117 10113 10107 10099 10091 10084 10078 10072 10065 10059 10054 10047 10040 10034 10027 10021 10019 10017 10013 10009 10005 10001 9998 9995 9991 9988 9984 9981 9978 9975 9972 9969 9965 9962 9960 9956 9954 9953 9954 9953 9952 9950 9950 9951 9951 9950 9950 9950
10349 10345 10341 10337 10333 10328 10323 10318 10313 10306 10300 10294 10288 10282 10276 10269 10263 10256 10250 10243 10235 10227 10219 10211 10204 10198 10191 10183 10174 10164 10155 10148 10141 10134 10125 10118 10111 10104 10098 10092 10084 10077 10071 10064 10058 10053 10047 10042 10035 10028 10021 10015 10010 10008 10006 10002 9997 9993 9990 9987 9984 9980 9977 9973 9970 9967 9965 9962 9959 9955 9952 9950 9947 9945 9943 9942 9942 9940 9937 9937 9938 9938 9937 9936 9937
10335 10330 10326 10322 10318 10313 10308 10302 10296 10290 10285 10279 10273 10267 10261 10255 10248 10241 10234 10227 10219 10211 10203 10196 10189 10182 10175 10167 10158 10149 10141 10134 10127 10119 10111 10104 10098 10091 10083 10076 10069 10063 10057 10051 10045 10039 10034 10029 10023 10015 10008 10002 9999 9998 9995 9990 9985 9982 9979 9976 9973 9970 9967 9963 9960 9957 9954 9952 9948 9945 9942 9939 9937 9936 9934 9933 9932 9930 9926 9924 9925 9926 9925 9922 9923
10319 10315 10311 10306 10301 10296 10291 10285 10280 10274 10269 10263 10257 10251 10245 10239 10232 10226 10219 10211 10203 10195 10188 10180 10173 10166 10158 10151 10143 10135 10127 10121 10113 10104 10096 10090 10084 10077 10069 10062 10055 10049 10043 10038 10031 10026 10021 10017 10010 10002 9995 9990 9987 9987 9984 9978 9974 9970 9967 9964 9962 9960 9957 9953 9950 9947 9944 9942 9939 9936 9933 9929 9927 9926 9924 9923 9923 9921 9917 9914 9912 9914 9914 9911 9910
10304 10299 10294 10289 10285 10280 10275 10269 10264 10259 10253 10247 10241 10235 10229 10223 10216 10210 10203 10195 10187 10180 10172 10164 10157 10149 10142 10135 10128 10121 10114 10107 10100 10090 10081 10076 10070 10063 10055 10049 10041 10035 10030 10024 10018 10012 10009 10004 9997 9989 9983 9979 9977 9976 9972 9967 9963 9959 9956 9953 9950 9949 9946 9943 9940 9937 9935 9932 9929 9926 9924 9921 9918 9916 9914 9913 9913 9912 9909 9905 9902 9901 9902 9901 9899
10287 10282 10277 10273 10269 10264 10259 10254 10248 10243 10237 10231 10225 10218 10212 10206 10200 10194 10187 10179 10171 10164 10156 10149 10141 10133 10126 10120 10113 10106 10100 10093 10084 10075 10067 10061 10055 10049 10042 10034 10027 10022 10016 10010 10005 10001 9997 9991 9984 9977 9972 9968 9966 9965 9962 9957 9953 9949 9945 9943 9940 9938 9936 9933 9930 9928 9926 9923 9920 9917 9914 9911 9909 9906 9904 9902 9902 9902 9900 9896 9893 9891 9890 9890 9888
10270 10266 10262 10257 10253 10249 10244 10238 10232 10226 10220 10213 10207 10201 10195 10189 10183 10177 10170 10161 10154 10147 10140 10133 10125 10117 10111 10105 10098 10091 10085 10078 10069 10061 10053 10047 10040 10035 10028 10021 10014 10009 10004 9998 9994 9990 9985 9979 9972 9966 9960 9956 9953 9952 9950 9946 9942 9939 9936 9934 9931 9928 9926 9924 9921 9918 9916 9914 9912 9909 9906 9902 9899 9898 9895 9892 9891 9892 9891 9887 9884 9881 9880 9879 9878
10254 10250 10245 10241 10236 10232 10227 10221 10215 10209 10202 10196 10190 10183 10177 10171 10165 10159 10152 10144 10137 10130 10123 10116 10109 10101 10095 10089 10082 10075 10069 10063 10055 10047 10041 10034 10028 10022 10016 10009 10003 9998 9992 9986 9983 9980 9974 9967 9961 9956 9950 9946 9943 9940 9938 9935 9931 9927 9925 9924 9921 9918 9916 9914 9912 9909 9907 9905 9902 9899 9896 9893 9890 9888 9886 9884 9882 9881 9881 9879 9875 9872 9870 9868 9868
10238 10233 10229 10224 10220 10215 10210 10204 10197 10191 10185 10179 10173 10166 10160 10153 10146 10140 10133 10126 10119 10112 10105 10098 10091 10085 10079 10073 10066 10059 10053 10047 10040 10034 10028 10022 10016 10010 10004 9998 9992 9987 9981 9975 9973 9970 9964 9957 9952 9947 9941 9937 9934 9931 9927 9923 9918 9915 9913 9911 9909 9907 9905 9903 9901 9899 9897 9895 9892 9889 9886 9884 9881 9878 9877 9875 9873 9872 9871 9870 9867 9864 9860 9859 9858
10222 10218 10213 10208 10203 10198 10193 10187 10180 10174 10168 10161 10155 10148 10141 10135 10128 10121 10114 10107 10101 10095 10088 10081 10074 10068 10062 10057 10050 10043 10037 10030 10025 10020 10014 10008 10002 9997 9991 9986 9981 9975 9969 9964 9962 9960 9953 9947 9942 9937 9931 9927 9925 9921 9917 9912 9907 9904 9902 9899 9897 9895 9894 9892 9890 9888 9886 9884 9881 9879 9876 9874 9872 9869 9867 9866 9865 9862 9861 9859 9858 9855 9852 9850 9849
10205 10201 10195 10191 10186 10180 10176 10170 10164 10158 10151 10144 10137 10131 10124 10117 10111 10103 10096 10089 10084 10078 10071 10065 10057 10051 10045 10039 10034 10028 10022 10015 10009 10004 10000 9994 9988 9982 9977 9974 9969 9963 9956 9952 9950 9947 9941 9936 9931 9925 9920 9917 9914 9911 9907 9902 9898 9895 9892 9889 9886 9884 9882 9881 9879 9877 9875 9873 9871 9869 9866 9864 9863 9860 9857 9856 9855 9853 9851 9849 9848 9846 9843 9841 9840
10186 10181 10176 10172 10167 10161 10156 10151 10145 10139 10133 10126 10119 10113 10106 10099 10093 10087 10080 10073 10066 10060 10054 10048 10041 10034 10028 10022 10016 10011 10006 10001 9995 9989 9983 9978 9973 9968 9963 9960 9956 9949 9942 9938 9936 9933 9929 9924 9920 9914 9909 9906 9904 9901 9897 9892 9888 9885 9883 9880 9877 9874 9871 9870 9869 9867 9865 9863 9860 9858 9856 9854 9853 9851 9848 9846 9845 9844 9842 9840 9838 9836 9834 9832 9831
10168 10163 10158 10153 10148 10142 10137 10131 10125 10119 10113 10106 10099 10093 10087 10081 10074 10069 10063 10057 10050 10043 10037 10030 10023 10017 10011 10005 9999 9993 9988 9985 9981 9975 9968 9962 9957 9952 9948 9945 9942 9936 9929 9924 9921 9919 9916 9912 9907 9903 9898 9895 9893 9890 9886 9882 9879 9876 9874 9871 9868 9865 9862 9860 9859 9857 9856 9853 9850 9848 9846 9845 9844 9843 9839 9836 9835 9834 9832 9830 9829 9827 9825 9823 9821
10150 10145 10140 10135 10129 10124 10118 10112 10106 10099 10093 10086 10079 10073 10068 10062 10056 10050 10045 10039 10033 10027 10020 10013 10006 10000 9993 9988 9983 9977 9972 9967 9964 9960 9955 9949 9943 9938 9934 9931 9927 9923 9918 9912 9907 9904 9902 9898 9894 9890 9886 9883 9881 9878 9875 9872 9869 9867 9865 9862 9859 9856 9853 9850 9848 9847 9846 9844 9841 9838 9837 9835 9834 9833 9830 9827 9826 9824 9822 9821 9819 9818 9817 9815 9813
10132 10127 10122 10117 10111 10105 10099 10093 10087 10081 10075 10068 10062 10056 10051 10045 10040 10034 10028 10022 10016 10010 10004 9998 9991 9984 9978 9972 9967 9962 9957 9952 9948 9944 9940 9935 9931 9926 9922 9919 9915 9911 9907 9902 9897 9893 9890 9886 9882 9879 9875 9872 9869 9867 9864 9862 9860 9857 9855 9852 9849 9846 9843 9840 9838 9837 9836 9834 9831 9829 9827 9826 9825 9823 9820 9817 9816 9815 9813 9812 9810 9808 9807 9807 9805
10112 10108 10103 10097 10092 10086 10081 10075 10070 10064 10058 10053 10047 10041 10036 10030 10024 10018 10012 10006 10000 9994 9988 9982 9976 9970 9964 9958 9953 9948 9944 9939 9934 9930 9925 9921 9917 9912 9909 9905 9902 9898 9895 9891 9886 9883 9879 9875 9871 9868 9864 9861 9858 9855 9853 9852 9850 9848 9845 9842 9839 9836 9833 9830 9829 9827 9826 9824 9821 9819 9818 9817 9816 9814 9811 9809 9807 9805 9803 9803 9801 9798 9798 9798 9797
10093 10088 10082 10077 10072 10067 10062 10057 10052 10047 10042 10037 10031 10025 10019 10013 10007 10001 9994 9988 9983 9977 9971 9966 9960 9955 9949 9944 9939 9934 9930 9925 9921 9916 9911 9907 9903 9898 9895 9891 9887 9884 9882 9879 9875 9871 9868 9864 9860 9857 9853 9850 9847 9845 9843 9841 9840 9838 9835 9832 9829 9826 9823 9821 9819 9818 9816 9814 9810 9808 9808 9807 9806 9804 9802 9800 9798 9795 9794 9794 9792 9790 9789 9789 9789
10074 10068 10063 10059 10053 10048 10044 10039 10034 10029 10024 10019 10013 10007 10000 9994 9989 9982 9976 9970 9964 9959 9954 9949 9943 9939 9934 9929 9924 9920 9916 9911 9907 9902 9898 9894 9889 9885 9881 9878 9874 9872 9869 9866 9863 9860 9856 9853 9850 9846 9843 9840 9837 9834 9832 9831 9829 9828 9825 9822 9819 9816 9813 9812 9810 9809 9806 9803 9801 9799 9799 9798 9796 9794 9793 9791 9789 9787 9785 9784 9783 9782 9781 9780 9779
10054 10050 10046 10042 10037 10033 10028 10022 10017 10011 10006 10000 9994 9988 9981 9975 9970 9964 9958 9952 9947 9942 9937 9932 9927 9923 9918 9913 9909 9905 9901 9897 9893 9888 9884 9880 9876 9872 9869 9865 9862 9859 9857 9854 9851 9847 9845 9842 9839 9836 9833 9830 9826 9824 9822 9820 9819 9817 9815 9812 9809 9806 9804 9802 9801 9799 9797 9793 9791 9791 9790 9788 9786 9785 9784 9782 9780 9778 9777 9775 9773 9772 9772 9772 9770
10035 10032 10028 10024 10020 10016 10011 10005 9999 9993 9987 9981 9975 9969 9963 9957 9951 9946 9940 9935 9930 9925 9921 9916 9912 9908 9903 9898 9894 9890 9887 9883 9879 9875 9871 9867 9863 9859 9856 9852 9849 9847 9845 9842 9838 9835 9832 9831 9828 9826 9823 9819 9816 9814 9812 9810 9808 9806 9804 9802 9799 9796 9794 9792 9791 9790 9786 9783 9782 9782 9781 9779 9777 9776 9774 9773 9771 9770 9768 9767 9765 9763 9763 9763 9762
10018 10014 10010 10006 10002 9997 9991 9985 9980 9974 9968 9962 9957 9951 9945 9940 9934 9929 9924 9919 9914 9910 9906 9901 9897 9893 9889 9885 9881 9876 9872 9869 9866 9862 9859 9856 9851 9847 9844 9840 9837 9833 9831 9829 9827 9824 9821 9819 9817 9815 9812 9809 9805 9803 9801 9799 9797 9795 9793 9791 9789 9786 9784 9783 9781 9779 9777 9774 9773 9773 9772 9770 9769 9767 9765 9763 9762 9761 9760 9758 9756 9755 9754 9754 9753
10001 9996 9992 9987 9982 9977 9972 9966 9961 9955 9950 9944 9939 9934 9929 9924 9919 9914 9909 9904 9900 9896 9891 9887 9883 9879 9875 9871 9868 9863 9859 9856 9853 9849 9846 9843 9840 9837 9833 9830 9826 9822 9818 9815 9814 9812 9810 9808 9805 9803 9801 9797 9795 9793 9791 9789 9786 9784 9782 9780 9778 9776 9775 9773 9770 9768 9767 9765 9764 9763 9762 9761 9760 9758 9756 9755 9753 9752 9752 9750 9748 9747 9746 9746 9745
9982 9977 9972 9967 9962 9957 9952 9947 9942 9937 9932 9926 9922 9917 9912 9908 9903 9899 9894 9890 9886 9881 9877 9873 9869 9865 9862 9858 9855 9851 9848 9844 9840 9837 9834 9831 9828 9826 9823 9820 9816 9812 9809 9805 9802 9799 9798 9796 9794 9792 9789 9786 9784 9782 9780 9778 9776 9773 9771 9769 9767 9766 9765 9763 9760 9758 9757 9756 9755 9754 9753 9752 9751 9748 9747 9746 9745 9744 9743 9741 9740 9739 9739 9738 9737
9962 9957 9952 9947 9943 9938 9933 9928 9923 9918 9914 9910 9905 9901 9897 9892 9888 9884 9879 9875 9871 9867 9863 9859 9855 9852 9848 9845 9842 9839 9836 9832 9828 9825 9821 9818 9816 9814 9812 9809 9805 9802 9799 9796 9793 9789 9787 9784 9782 9780 9778 9775 9773 9771 9769 9767 9765 9763 9761 9759 9757 9755 9755 9753 9751 9749 9748 9746 9745 9745 9744 9743 9742 9740 9738 9737 9737 9736 9734 9733 9732 9731 9731 9730 9729
9944 9939 9934 9930 9925 9921 9916 9911 9907 9902 9898 9894 9890 9886 9882 9878 9873 9869 9865 9861 9857 9853 9849 9846 9842 9838 9835 9832 9829 9826 9823 9820 9816 9813 9809 9807 9805 9802 9800 9797 9794 9791 9788 9786 9783 9780 9777 9774 9771 9769 9767 9764 9762 9761 9758 9757 9755 9753 9751 9748 9746 9745 9744 9743 9742 9741 9738 9737 9736 9736 9735 9734 9733 9731 9730 9729 9728 9727 9726 9725 9724 9723 9723 9722 9721
9926 9922 9917 9913 9909 9904 9900 9896 9891 9887 9883 9879 9875 9871 9867 9863 9859 9855 9851 9847 9843 9840 9836 9832 9829 9826 9822 9819 9816 9814 9811 9807 9804 9801 9798 9795 9793 9790 9788 9785 9782 9779 9776 9774 9772 9770 9767 9764 9761 9759 9756 9754 9752 9749 9747 9746 9744 9742 9740 9738 9736 9735 9734 9734 9733 9731 9729 9728 9727 9727 9726 9725 9724 9723 9722 9721 9720 9719 9718 9717 9716 9716 9715 9715 9713
9908 9904 9900 9896 9892 9888 9884 9880 9876 9872 9868 9864 9860 9856 9852 9848 9845 9841 9837 9833 9830 9826 9823 9819 9816 9813 9810 9807 9804 9801 9798 9795 9792 9789 9786 9784 9781 9779 9776 9774 9770 9767 9765 9762 9760 9758 9756 9753 9751 9749 9746 9744 9742 9739 9736 9734 9733 9732 9730 9728 9727 9725 9725 9724 9724 9722 9720 9719 9719 9718 9717 9716 9716 9715 9714 9713 9712 9711 9710 9710 9709 9708 9708 9707 9706
9892 9888 9884 9880 9876 9872 9868 9864 9860 9857 9853 9849 9846 9842 9838 9834 9831 9827 9823 9820 9817 9814 9810 9807 9803 9800 9797 9795 9792 9788 9786 9783 9780 9777 9774 9772 9769 9767 9765 9762 9759 9756 9754 9751 9749 9747 9745 9743 9741 9738 9736 9734 9731 9729 9726 9724 9722 9721 9720 9718 9717 9716 9715 9715 9714 9713 9712 9711 9710 9709 9708 9708 9707 9707 9706 9705 9704 9703 9703 9702 9702 9701 9701 9700 9700
9876 9872 9868 9864 9860 9856 9852 9849 9845 9842 9838 9835 9831 9827 9824 9820 9817 9814 9810 9807 9804 9801 9798 9795 9791 9788 9785 9782 9779 9776 9774 9771 9768 9766 9763 9760 9758 9756 9753 9750 9748 9745 9742 9740 9738 9736 9734 9732 9730 9727 9726 9724 9721 9719 9716 9714 9712 9711 9710 9709 9708 9707 9706 9706 9705 9704 9703 9702 9701 9700 9700 9699 9699 9699 9698 9697 9696 9696 9695 9695 9694 9694 9693 9693 9693